Torna al catalogo

CZ-3C DEB

AttivoGTO
NORAD 40195·DEBRIS·🇨🇳 China

Lanciato Feb 24, 2012 da Xichang Satellite Launch Center

Loading…

TLE

ObsoletoSource: Space-Track

Epoca: Sep 2, 2026, 20:16 UTC

1 40195U 12008E   26245.84454476  .00000286  00000-0  53628-3 0  9994
2 40195  19.9858 150.8637 7121445 264.4618  18.0446  2.39941858 19008

Traccia CZ-3C DEB in tempo reale con AllMySat

Download on the App Store